ARIANE 44L+3 R/B, 23866

Orbit data source: Space-Track

ARIANE 44L+3 R/B, 23866 is space debris in HEO originally from a launch on Thu, 16 May 1996 UTC launched from the French Guiana (FRGUI). Debris objects in space refer to the collection of defunct objects orbiting the Earth. Examples of debris include non-operational satellites, rocket bodies, and fragments generated from explosions, collisions, or faulty payload assembly.

Loading next visibility...
Identifier
23866, 1996-030C
Orbit
HEO
Country
Flag of FRFR
Related business
Manufacturer
Ae/LesM
Mission
Spacecraft
Bus & Motor
ARIANE H10-3/S, Unknown motor
Mass
2,260 kg wet, 2,080 kg dry
Launch date (UTC)
1996-05-16 (30 years ago)
Launch vehicle
Unknown
Launch site
French Guiana (FRGUI)
Object type
Payload
Rocket body
Debris
Shape & HBR
Cyl, 5.5 m
Radar Cross Section
25.199 m², Large (>1 m²)

Expand to show TLE details & history
Last TLE update: 12 hours ago

TLE from 12 hours ago
0 ARIANE 44L+3 R/B
1 23866U 96030C   26093.66776960  .00012681  00000-0  34676-2 0  9996
2 23866   4.2545 282.0585 6716237  55.5736 350.8126  3.01257901280407
Epoch: 2026-04-03T16:01Z
TLE epoch observation values (Epoch: 2026-04-03T16:01:35.293Z)
Latitude
-0.00005°
Longitude
-150.64638°
Altitude
1,692.196 km
Speed
8.893 km/s
True Right ascension
18h 46m 59s
True Declination
0° 00' 00"
Sunlit
Object was in daylight at epoch
Visualization orbit readout
Latitude
Unknown
Longitude
Unknown
Altitude
Unknown
Speed
Unknown
Apparent Right ascension
Unknown
Apparent Declination
Unknown
Sunlit
N/A
Visualization observer readout
Local Sidereal Time
09:51:24
Azimuth
Unknown
Elevation
Unknown
Doppler factor
Unknown
Orbital elements
Apogee altitude
27,482.522 km
Perigee altitude
273.502 km
Semi-major axis
20,256.149 km
Eccentricity
0.67162
Inclination
4.2545°
RAAN
282.0585°
Arg. of periapsis
55.5736°
True anomaly
304.70499°
Mean anomaly
350.8126°
Eccentric anomaly
333.85771°
Mean motion
0.75285 °/min
Orbital period
478.18 mins
BSTAR
0.0034676
Loading maneuver chart data...
Computing Atmospheric mass density...
Loading historical data...
Loading historical data...
Loading historical data...
Loading historical data...
Loading historical data...
Loading historical data...
Loading historical data...
Other satellites on launch #30 in the year 1996 (1996-05-16 UTC)

Documentation

Showing up to 5 results
|